Regional Weather Roundup
Issued by NWS

Home | Current Version | Previous Version | Graphics & Text | Print | Product List | Glossary On
Versions: 1 2 3 4 5 6 7 8 9 10 11 12 13 14 15 16 17 18 19 20 21 22 23 24 25 26 27 28 29 30 31 32 33 34 35 36 37 38 39 40 41 42 43 44 45 46 47 48 49 50
000
ASUS45 KABQ 031601
RWRNM
WEATHER ROUNDUP FOR NEW MEXICO
NATIONAL WEATHER SERVICE ALBUQUERQUE NM
1000 AM MDT SUN MAY 03 2015

NOTE: "FAIR" MEANS FEW OR NO CLOUDS BELOW 12,000 FEET AGL WITH NO
       SIGNIFICANT WEATHER OR OBSTRUCTIONS TO VISION.

      THIS PRODUCT IS RELEASED AS TWO VERSIONS.  ONE VERSION NEAR
      THE TOP OF THE HOUR CONTAINING PRELIMINARY DATA FROM ALBUQUERQUE
      AND OTHER STATIONS.  A FINAL VERSION WITH ADDITIONAL DATA IS
      ISSUED ABOUT 10 MINUTES AFTER THE HOUR.

NMZ501-503-504-510>518-031700-
NORTHWEST PLATEAU/NORTHCENTRAL MOUNTAINS

CITY           SKY/WX    TMP DP  RH WIND       PRES   REMARKS
FARMINGTON     PTSUNNY   62  37  39 SE6       30.08R
SANTA FE       PTSUNNY   59  34  39 N6        30.11R
TAOS           PTSUNNY   57  34  41 CALM      30.15S
ANGEL FIRE     FAIR      54  33  45 SW7G17    30.19F

$$
NMZ402-403-502-505>509-031700-
WESTCENTRAL MOUNTAINS/SOUTHWEST MOUNTAINS

CITY           SKY/WX    TMP DP  RH WIND       PRES   REMARKS
GALLUP         SUNNY     60  38  43 VRB6      30.12F
GRANTS         MOSUNNY   62  34  35 CALM      30.14S
SILVER CITY      N/A     70  34  26 NW6       30.10R

$$
NMZ407-409-411-412-031700-
SOUTHERN DESERTS

CITY           SKY/WX    TMP DP  RH WIND       PRES   REMARKS
DEMING         SUNNY     72  38  29 W9        30.03S
HOLLOMAN AFB   SUNNY     78  35  21 VRB5      29.98S
ALAMOGORDO     SUNNY     77  34  20 NW5       30.00S
T OR C         SUNNY     72  34  24 W7        30.03S

$$
NMZ519>523-031700-
CENTRAL VALLEYS/CENTRAL HIGHLANDS

CITY           SKY/WX    TMP DP  RH WIND       PRES   REMARKS
ALBUQUERQUE    PTSUNNY   67  37  33 W3        30.08S
DOUBLE EAGLE   PTSUNNY   64  39  39 CALM      30.10S
MORIARTY ARPT  FAIR      66  32  28 CALM      30.11S
CLINES CORNERS MOSUNNY   66  32  28 W14       30.12R
BELEN          CLOUDY    66  36  32 N3        30.07S
SOCORRO        NOT AVBL

$$
NMZ524>526-539-540-031700-
SOUTHCENTRAL MOUNTAINS

CITY           SKY/WX    TMP DP  RH WIND       PRES   REMARKS
RUIDOSO        NOT AVBL

$$
NMZ527>531-031700-
NORTHEAST HIGHLANDS/NORTHEAST PLAINS

CITY           SKY/WX    TMP DP  RH WIND       PRES   REMARKS
LAS VEGAS      PTSUNNY   64  33  31 SW8       30.10F
RATON          PTSUNNY   62  33  33 CALM      30.04F
CLAYTON        MOSUNNY   74  41  30 SW8       29.97S

$$
NMZ532>537-031700-
EASTCENTRAL PLAINS

CITY           SKY/WX    TMP DP  RH WIND       PRES   REMARKS
TUCUMCARI      SUNNY     74  45  35 W8        29.95F
CANNON AFB     NOT AVBL
CLOVIS AIRPORT SUNNY     73  46  38 W12       29.98R

$$
NMZ028-029-538-031700-
SOUTHEAST PLAINS

CITY           SKY/WX    TMP DP  RH WIND       PRES   REMARKS
ROSWELL        PTSUNNY   73  47  39 VRB6      29.98R
ARTESIA        MOSUNNY   70  46  43 E6        29.97F
CARLSBAD       MOSUNNY   68  47  46 S5        29.96R
HOBBS          SUNNY     68  46  45 SE9       29.99S


$$


USA.gov is the U.S. government's official web portal to all federal, state and local government web resources and services.